User: anonymous   Login
Location: Unspecified
(0.0000°N, 0.0000°E)
Time: 17:29:42
(UTC+00:00)
Language:

SKYSAT 2 - Orbit

View from above orbital plane
View from above orbital plane
View from above satellite
View from above satellite

Ground track
Ground track

The orbit data is extracted from the following two-line orbital elements,

1 40072U 14037D   21336.83811411  .00000233  00000-0  37237-4 0  9994
2 40072  98.4325 190.3034 0005544 218.2702 141.8116 14.81492314400133
Epoch (UTC): 02 December 2021 20:06:53
Eccentricity: 0.0005544
inclination: 98.4325°
perigee height: 621 km
apogee height: 628 km
right ascension of ascending node: 190.3034°
argument of perigee: 218.2702°
revolutions per day: 14.81492314
mean anomaly at epoch: 141.8116°
orbit number at epoch: 40013

The dashed part of the orbit path shows where the satellite is in the earth's shadow,  

DLR